Regional Weather Roundup
Issued by NWS Charleston, SC

Current Version | Previous Version | Graphics & Text | Print | Product List | Glossary On
Versions: 1 2 3 4 5 6 7 8 9 10 11 12 13 14 15 16 17 18 19 20 21 22 23 24 25 26 27 28 29 30 31 32 33 34 35 36 37 38 39 40 41 42 43 44 45 46 47 48 49 50
000 ASUS42 KCHS 222312 RWRCHS REGIONAL WEATHER ROUNDUP NATIONAL WEATHER SERVICE CHARLESTON SC 600 PM EST SUN JAN 22 2017 NOTE: "FAIR" INDICATES FEW OR NO CLOUDS BELOW 12,000 FEET WITH NO SIGNIFICANT WEATHER AND/OR OBSTRUCTIONS TO VISIBILITY. NOT ALL STATIONS ARE QUALITY CONTROLLED. USE DATA WITH CAUTION... ESPECIALLY DEWPOINT OBSERVATIONS. SCZ027-030-031-034>040-042>050-230000- ...SOUTHEAST SOUTH CAROLINA... CITY SKY/WX TMP DP RH WIND PRES REMARKS N CHARLESTON CLOUDY 61 59 93 S9 29.43F WATERFRONT PRK N/A 60 60 100 S7 29.45F MOUNT PLEASANT CLOUDY 61 61 100 CALM 29.45F FOG JOHNS ISLAND N/A 61 61 100 SE10 29.44F PINOPOLIS N/A 61 61 100 SE7 29.33F MONCKS CORNER CLOUDY 59 57 94 S9 29.43S THUNDER SUMMERVILLE CLOUDY N/A N/A N/A SE7 29.43F BEAUFORT MCAS LGT RAIN 63 61 93 SE13 29.39F BEAUFORT ARPT CLOUDY 61 61 100 SE8G17 29.40F HILTON HEAD IS CLOUDY 61 61 100 SE9 29.42F WALTERBORO CLOUDY 61 59 94 SE9G17 29.41F ALLENDALE TSTM 63 61 94 SE10 29.35F ...SOUTHERN MIDLANDS AND PEE DEE... CITY SKY/WX TMP DP RH WIND PRES REMARKS GEORGETOWN MOCLDY 59 59 100 SE9 29.48S KINGSTREE DRIZZLE 61 59 94 CALM 29.44F ORANGEBURG LGT RAIN 61 60 97 E5 29.37F BARNWELL RAIN 63 61 94 VRB3G17 29.36F AIKEN HVY RAIN 59 59 100 E3 29.39F MANNING MOCLDY 59 57 94 E6 29.40F COLUMBIA RAIN 63 60 90 E7 29.37F SUMTER DRIZZLE 61 59 94 E8 29.38S FLORENCE LGT RAIN 61 60 97 E10 29.44F MYRTLE BEACH MOCLDY 61 57 88 E9 29.47F N MYRTLE BEACH CLOUDY 60 59 96 E5 29.45F $$ GAZ063-065-086>088-099>101-113>116-118-119-134>141-150-230000- ...SOUTHEAST GEORGIA... CITY SKY/WX TMP DP RH WIND PRES REMARKS SAVANNAH ARPT TSTM 62 58 86 E14 29.37F HUNTER AAF TSTM 62 62 100 E16G24 29.34F FORT STEWART TSTM 63 59 88 E12G20 29.30F STATESBORO TSTM 63 32 31 SE7G23 29.32F SYLVANIA TSTM N/A N/A N/A SE14G24 29.35F CLAXTON CLOUDY N/A N/A N/A E7 29.34F ...CSRA...CENTRAL AND FAR SOUTHEAST GEORGIA... CITY SKY/WX TMP DP RH WIND PRES REMARKS THOMSON CLOUDY 63 63 100 SE15 29.34R AUGUSTA-BUSH TSTM 63 60 90 SE10 29.34S FOG AUGUSTA-DANIEL HVY RAIN 62 58 86 SE13G18 29.33F FOG SWAINSBORO CLOUDY 63 61 94 SE14 29.32R VIDALIA LGT RAIN 64 64 100 S9 29.32R EASTMAN CLOUDY 67 67 100 S6 29.31F HAZLEHURST CLOUDY 65 65 100 SE5 29.30R ALMA CLOUDY 65 65 100 SE6 29.31F WAYCROSS TSTM 69 69 100 W9G25 29.36R JESUP LGT RAIN 63 61 94 E13 29.31F BAXLEY CLOUDY 64 64 100 S3 29.32R BRUNSWICK CLOUDY 64 63 94 SE10 29.37F SAINT SIMONS CLOUDY 63 61 93 SE15G22 29.36F $$ SCZ027-028-034-036>038-045-046-048>050-GAZ119-141-230000- ...LAKE AND SUPPLEMENTAL COASTAL OBSERVATIONS... STATION/POSITION TIME TEMP WIND PRES WAVE SWELL AIR SEA DIR/SP/G HT/PER HT/PER/DIR (UTC) (F) (DEG/KT/KT) (MB) (FT/S) (FT/S/D) WINYAH BAY 2145 61 310/ 5 999.0 LAKE MURRAY 2220 62 120/ 5/ 11 994.6 ACE BASIN NERRS 2145 61 140/ 2 998.0 FORT PULASKI 2242 62 59 140/ 13/ 20 N/A SAPELO ISLAND 2200 61 110/ 11 996.0 $$ ANZ835-935-AMZ111-154-330-350-352-354-370-450-454-472-230000- ...C-MAN AND BUOY OBSERVATIONS... STATION/POSITION TIME TEMP WIND PRES WAVE SWELL AIR SEA DIR/SP/G HT/PER HT/PER/DIR (UTC) (F) (DEG/KT/KT) (MB) (FT/S) (FT/S/D) BUOY 41004 2150 65 67 160/ 14/ 17 999.4 6/ 7 3/180/ 7 BUOY 41008 2150 62 60 120/ 17/ 19 996.6 4/ 7 2/ 90/10 FOLLY BEACH CMAN 2300 60 130/ 12/ 13 997.1F CAPERS NEARSHORE 2208 58 56 170/ 8/ 14 998.2F FRIPP NEARSHORE 2208 61 58 130/ 12/ 16 998.4F STATION/POSITION TIME TEMP WIND PRES WAVE SWELL AIR SEA DIR/SP/G HT/PER HT/PER/DIR (UTC) (F) (DEG/KT/KT) (MB) (FT/S) (FT/S/D) 5E ST. MARYS GA 2230 63 N/A 4/ 6 FRYING PAN BUOY 2250 66 64 180/ 14/ 17 999.0F 7/ 8 7/180/ 8 BUOY 41025 2250 65 71 300/ 12/ 14 1001.2R 4/11 3/ 80/11 CAPE LOOKOUT NC 2300 60 360/ 5/ 6 1000.6F BUOY 41002 2150 73 71 210/ 17/ 19 1003.9 8/ 8 5/ 50/13 BUOY 41010 NOT AVBL ST AUGUSTINE FL 2300 77 66 210/ 18/ 23 997.1F $$

USA.gov is the U.S. government's official web portal to all federal, state and local government web resources and services.